When you browse on this site, cookies collect data to enhance your experience and personalize the content and advertising you see.
Visit our Privacy Policy to learn more. By continuing to use the site, you agree to this use of cookies and data.
  • In Lithuania
  • List of Countries
  • For 7 days
  • Water Temperature
  • Weather Map
  • Weather Widgets
  • user-avatar
    Login

    Hourly Weather Wiktoria

    Today, 19 September, Thursday

    Time Temperature Precipitation Wind Pressure Humidity
    00:00 +8°C° 0 mm 2 mps 757 mmHg 89%
    01:00 +8°C° 0 mm 2 mps 756 mmHg 91%
    02:00 +7°C° 0 mm 2 mps 756 mmHg 91%
    03:00 +7°C° 0 mm 3 mps 756 mmHg 92%
    04:00 +7°C° 0 mm 3 mps 756 mmHg 92%
    05:00 +7°C° 0 mm 3 mps 756 mmHg 92%
    06:00 +8°C° 0 mm 3 mps 756 mmHg 91%
    07:00 +8°C° 0 mm 3 mps 756 mmHg 91%
    08:00 +10°C° 0 mm 4 mps 755 mmHg 87%
    09:00 +13°C° 0 mm 5 mps 755 mmHg 82%
    10:00 +15°C° 0 mm 6 mps 755 mmHg 78%
    11:00 +17°C° 0 mm 6 mps 754 mmHg 77%
    12:00 +19°C° 0 mm 6 mps 754 mmHg 75%
    13:00 +20°C° 0 mm 6 mps 753 mmHg 74%
    14:00 +21°C° 0.1 mm 5 mps 753 mmHg 75%
    15:00 +21°C° 0.1 mm 5 mps 752 mmHg 77%
    16:00 +21°C° 0.1 mm 4 mps 752 mmHg 78%
    17:00 +20°C° 0 mm 4 mps 752 mmHg 82%
    18:00 +18°C° 0 mm 4 mps 752 mmHg 87%
    19:00 +15°C° 0 mm 4 mps 752 mmHg 91%
    20:00 +15°C° 0 mm 4 mps 752 mmHg 90%
    21:00 +15°C° 0 mm 5 mps 752 mmHg 89%
    22:00 +15°C° 0 mm 5 mps 752 mmHg 88%
    23:00 +15°C° 0 mm 5 mps 752 mmHg 88%

    Tomorrow, 20 September, Friday

    Time Temperature Precipitation Wind Pressure Humidity
    00:00 +14°C° 0 mm 6 mps 752 mmHg 87%
    01:00 +14°C° 0 mm 6 mps 752 mmHg 87%
    02:00 +14°C° 0 mm 6 mps 752 mmHg 87%
    03:00 +13°C° 0 mm 6 mps 752 mmHg 87%
    04:00 +13°C° 0 mm 6 mps 751 mmHg 88%
    05:00 +13°C° 0 mm 6 mps 752 mmHg 87%
    06:00 +13°C° 0 mm 6 mps 752 mmHg 87%
    07:00 +13°C° 0 mm 6 mps 752 mmHg 87%
    08:00 +14°C° 0 mm 6 mps 752 mmHg 84%
    09:00 +16°C° 0 mm 7 mps 752 mmHg 81%
    10:00 +18°C° 0 mm 7 mps 752 mmHg 78%
    11:00 +20°C° 0 mm 7 mps 751 mmHg 75%
    12:00 +21°C° 0 mm 7 mps 750 mmHg 72%
    13:00 +22°C° 0 mm 7 mps 750 mmHg 70%
    14:00 +22°C° 0 mm 7 mps 749 mmHg 71%
    15:00 +22°C° 0 mm 6 mps 748 mmHg 73%
    16:00 +22°C° 0 mm 6 mps 748 mmHg 75%
    17:00 +21°C° 0 mm 6 mps 747 mmHg 74%
    18:00 +20°C° 0 mm 6 mps 747 mmHg 73%
    19:00 +19°C° 0 mm 6 mps 747 mmHg 72%
    20:00 +19°C° 0 mm 6 mps 747 mmHg 71%
    21:00 +18°C° 0 mm 7 mps 746 mmHg 70%
    22:00 +18°C° 0 mm 7 mps 746 mmHg 69%
    23:00 +17°C° 0 mm 7 mps 746 mmHg 72%

    Day after tomorrow, 21 September, Saturday

    Time Temperature Precipitation Wind Pressure Humidity
    00:00 +17°C° 0 mm 7 mps 745 mmHg 75%
    01:00 +17°C° 0 mm 7 mps 745 mmHg 78%
    02:00 +16°C° 0.4 mm 6 mps 745 mmHg 82%
    03:00 +15°C° 0.4 mm 5 mps 745 mmHg 85%
    04:00 +15°C° 0.4 mm 4 mps 744 mmHg 89%
    05:00 +15°C° 0 mm 4 mps 745 mmHg 89%
    06:00 +14°C° 0 mm 3 mps 745 mmHg 89%
    07:00 +14°C° 0 mm 3 mps 746 mmHg 89%
    08:00 +13°C° 0.4 mm 4 mps 747 mmHg 90%
    09:00 +13°C° 0.4 mm 5 mps 747 mmHg 91%
    10:00 +11°C° 0.4 mm 6 mps 748 mmHg 92%
    11:00 +13°C° 0.5 mm 6 mps 748 mmHg 88%
    12:00 +14°C° 0.5 mm 6 mps 749 mmHg 84%
    13:00 +15°C° 0.5 mm 6 mps 749 mmHg 80%
    14:00 +15°C° 0.2 mm 6 mps 749 mmHg 77%
    15:00 +15°C° 0.2 mm 6 mps 749 mmHg 73%
    16:00 +15°C° 0.2 mm 5 mps 749 mmHg 69%
    17:00 +13°C° 0 mm 4 mps 750 mmHg 73%
    18:00 +11°C° 0 mm 3 mps 750 mmHg 77%
    19:00 +10°C° 0 mm 2 mps 751 mmHg 81%
    20:00 +9°C° 0 mm 2 mps 752 mmHg 84%
    21:00 +8°C° 0 mm 2 mps 752 mmHg 88%
    22:00 +7°C° 0 mm 2 mps 753 mmHg 91%
    23:00 +8°C° 0 mm 2 mps 753 mmHg 89%

    22 September, Sunday

    Time Temperature Precipitation Wind Pressure Humidity
    00:00 +8°C° 0 mm 3 mps 753 mmHg 87%
    01:00 +8°C° 0 mm 3 mps 753 mmHg 84%
    02:00 +7°C° 0 mm 2 mps 754 mmHg 87%
    03:00 +6°C° 0 mm 2 mps 754 mmHg 90%
    04:00 +4°C° 0 mm 2 mps 754 mmHg 93%
    05:00 +5°C° 0 mm 2 mps 755 mmHg 92%
    06:00 +5°C° 0 mm 2 mps 755 mmHg 92%
    07:00 +6°C° 0 mm 1 mps 755 mmHg 91%
    08:00 +7°C° 0 mm 2 mps 756 mmHg 81%
    09:00 +9°C° 0 mm 2 mps 756 mmHg 72%
    10:00 +12°C° 0 mm 2 mps 756 mmHg 62%
    11:00 +13°C° 0 mm 2 mps 756 mmHg 60%
    12:00 +13°C° 0 mm 3 mps 755 mmHg 58%
    13:00 +13°C° 0 mm 3 mps 755 mmHg 55%
    14:00 +13°C° 0.1 mm 3 mps 755 mmHg 58%
    15:00 +13°C° 0.1 mm 3 mps 754 mmHg 61%
    16:00 +13°C° 0.1 mm 3 mps 754 mmHg 64%
    17:00 +11°C° 0.1 mm 3 mps 755 mmHg 69%
    18:00 +9°C° 0.1 mm 2 mps 755 mmHg 75%
    19:00 +7°C° 0.1 mm 2 mps 756 mmHg 80%
    20:00 +7°C° 0 mm 2 mps 756 mmHg 82%
    21:00 +7°C° 0 mm 1 mps 756 mmHg 84%
    22:00 +7°C° 0 mm 1 mps 756 mmHg 86%
    23:00 +6°C° 0 mm 1 mps 756 mmHg 87%

    23 September, Monday

    Time Temperature Precipitation Wind Pressure Humidity
    00:00 +6°C° 0 mm 1 mps 756 mmHg 88%
    01:00 +5°C° 0 mm 1 mps 755 mmHg 88%
    02:00 +5°C° 0 mm 1 mps 755 mmHg 89%
    03:00 +5°C° 0 mm 1 mps 755 mmHg 90%
    04:00 +4°C° 0 mm 1 mps 755 mmHg 91%
    05:00 +5°C° 0.1 mm 1 mps 755 mmHg 91%
    06:00 +5°C° 0.1 mm 1 mps 755 mmHg 91%
    07:00 +6°C° 0.1 mm 1 mps 756 mmHg 92%
    08:00 +7°C° 0.4 mm 1 mps 756 mmHg 91%
    09:00 +8°C° 0.4 mm 1 mps 756 mmHg 90%
    10:00 +8°C° 0.4 mm 1 mps 756 mmHg 89%
    11:00 +10°C° 0.3 mm 1 mps 756 mmHg 85%
    12:00 +10°C° 0.3 mm 2 mps 756 mmHg 80%
    13:00 +12°C° 0.3 mm 2 mps 756 mmHg 76%
    14:00 +13°C° 0.3 mm 2 mps 755 mmHg 77%
    15:00 +13°C° 0.3 mm 2 mps 755 mmHg 78%
    16:00 +12°C° 0.3 mm 3 mps 755 mmHg 79%
    17:00 +10°C° 0 mm 2 mps 756 mmHg 83%
    18:00 +9°C° 0 mm 2 mps 756 mmHg 86%
    19:00 +8°C° 0 mm 1 mps 757 mmHg 90%
    20:00 +8°C° 0 mm 1 mps 757 mmHg 90%
    21:00 +7°C° 0 mm 1 mps 758 mmHg 91%
    22:00 +7°C° 0 mm 1 mps 758 mmHg 91%
    23:00 +6°C° 0 mm 1 mps 758 mmHg 91%

    24 September, Tuesday

    Time Temperature Precipitation Wind Pressure Humidity
    00:00 +6°C° 0 mm 1 mps 758 mmHg 92%
    01:00 +4°C° 0 mm 2 mps 758 mmHg 92%
    02:00 +4°C° 0 mm 2 mps 758 mmHg 92%
    03:00 +3°C° 0 mm 2 mps 758 mmHg 92%
    04:00 +3°C° 0 mm 2 mps 758 mmHg 93%
    05:00 +4°C° 0 mm 1 mps 759 mmHg 93%
    06:00 +5°C° 0 mm 1 mps 759 mmHg 93%
    07:00 +5°C° 0 mm 1 mps 760 mmHg 93%
    08:00 +7°C° 0 mm 1 mps 760 mmHg 86%
    09:00 +10°C° 0 mm 1 mps 760 mmHg 79%
    10:00 +12°C° 0 mm 1 mps 760 mmHg 72%
    11:00 +13°C° 0 mm 1 mps 759 mmHg 66%
    12:00 +14°C° 0 mm 1 mps 759 mmHg 60%
    13:00 +15°C° 0 mm 2 mps 758 mmHg 54%
    14:00 +15°C° 0 mm 2 mps 758 mmHg 55%
    15:00 +15°C° 0 mm 2 mps 757 mmHg 56%
    16:00 +15°C° 0 mm 2 mps 757 mmHg 57%
    17:00 +13°C° 0 mm 2 mps 757 mmHg 64%
    18:00 +11°C° 0 mm 1 mps 758 mmHg 71%
    19:00 +9°C° 0 mm 1 mps 758 mmHg 78%
    20:00 +8°C° 0 mm 1 mps 758 mmHg 79%
    21:00 +6°C° 0 mm 2 mps 759 mmHg 80%
    22:00 +5°C° 0 mm 2 mps 759 mmHg 81%
    23:00 +5°C° 0 mm 2 mps 759 mmHg 82%
    Show more